Location: Unspecified
(44.0704°N, 88.6889°W)
Time: 17:13:41
(UTC+02:00)

deb Explorer IX - Pass Details

Date: 21 June 2019
Orbit: 539 x 1112 km, 38.8° (Epoch: 21 July)

Event Time Altitude Azimuth Distance (km) Brightness Sun altitude
Rises 04:12:17 0° 273° (W) 3,824 ? -5.3°
Reaches altitude 10° 04:16:16 10° 253° (WSW) 2,778 ? -5.8°
Maximum altitude 04:20:02 16° 219° (SW) 2,273 ? -6.3°
Drops below altitude 10° 04:23:34 10° 184° (S) 2,553 ? -6.8°
Enters shadow 04:26:09 - 167° (SSE) 3,129 ? -7.1°
